When you browse on this site, cookies collect data to enhance your experience and personalize the content and advertising you see.
Visit our Privacy Policy to learn more. By continuing to use the site, you agree to this use of cookies and data.
  • En España
  • Lista de países
  • Para 7 días
  • Temperatura del agua
  • Mapa Satelital
  • El tiempo en el mapa
  • Informadores
  • user-avatar
    Iniciar sesión

    Tiempo cada hora Sicienko

    Hoy, 19 Diciembre, Miércoles

    Tiempo Temperatura Precipitaciones Viento Presión Humedad
    00:00 -1°C° 0 mm 2 mps 760 mmHg 96%
    01:00 -1°C° 0 mm 3 mps 760 mmHg 96%
    02:00 -1°C° 0 mm 3 mps 760 mmHg 95%
    03:00 -1°C° 0 mm 3 mps 759 mmHg 94%
    04:00 -1°C° 0 mm 3 mps 759 mmHg 93%
    05:00 -2°C° 0 mm 4 mps 759 mmHg 92%
    06:00 -3°C° 0 mm 4 mps 759 mmHg 91%
    07:00 -3°C° 0 mm 4 mps 759 mmHg 89%
    08:00 -3°C° 0 mm 4 mps 758 mmHg 87%
    09:00 -4°C° 0 mm 5 mps 758 mmHg 84%
    10:00 -2°C° 0 mm 5 mps 758 mmHg 82%
    11:00 -2°C° 0 mm 5 mps 758 mmHg 81%
    12:00 -2°C° 0 mm 5 mps 757 mmHg 80%
    13:00 -2°C° 0 mm 5 mps 757 mmHg 79%
    14:00 -2°C° 0 mm 5 mps 756 mmHg 80%
    15:00 -4°C° 0 mm 5 mps 756 mmHg 82%
    16:00 -4°C° 0 mm 5 mps 756 mmHg 83%
    17:00 -4°C° 0 mm 5 mps 755 mmHg 83%
    18:00 -4°C° 0 mm 5 mps 755 mmHg 82%
    19:00 -4°C° 0 mm 5 mps 755 mmHg 81%
    20:00 -4°C° 0 mm 5 mps 755 mmHg 81%
    21:00 -3°C° 0 mm 4 mps 755 mmHg 81%
    22:00 -3°C° 0 mm 4 mps 755 mmHg 81%
    23:00 -3°C° 0 mm 4 mps 755 mmHg 81%

    Mañana, 20 Diciembre, Jueves

    Tiempo Temperatura Precipitaciones Viento Presión Humedad
    00:00 -3°C° 0 mm 4 mps 754 mmHg 82%
    01:00 -3°C° 0 mm 4 mps 754 mmHg 82%
    02:00 -3°C° 0.2 mm 4 mps 754 mmHg 84%
    03:00 -2°C° 0.2 mm 3 mps 754 mmHg 86%
    04:00 -2°C° 0.2 mm 3 mps 754 mmHg 88%
    05:00 -2°C° 0.3 mm 3 mps 754 mmHg 89%
    06:00 -2°C° 0.3 mm 3 mps 754 mmHg 90%
    07:00 -2°C° 0.3 mm 3 mps 754 mmHg 91%
    08:00 -2°C° 0.2 mm 3 mps 754 mmHg 91%
    09:00 -1°C° 0.2 mm 3 mps 754 mmHg 90%
    10:00 -1°C° 0.2 mm 3 mps 754 mmHg 89%
    11:00 -1°C° 0.2 mm 3 mps 753 mmHg 89%
    12:00 -1°C° 0.2 mm 3 mps 753 mmHg 88%
    13:00 -1°C° 0.2 mm 3 mps 753 mmHg 87%
    14:00 -1°C° 0.2 mm 3 mps 753 mmHg 88%
    15:00 -1°C° 0.2 mm 3 mps 753 mmHg 88%
    16:00 -1°C° 0.2 mm 3 mps 753 mmHg 89%
    17:00 -1°C° 0.1 mm 3 mps 753 mmHg 91%
    18:00 -1°C° 0.1 mm 3 mps 753 mmHg 92%
    19:00 -1°C° 0.1 mm 3 mps 752 mmHg 93%
    20:00 -1°C° 0.2 mm 3 mps 752 mmHg 94%
    21:00 -1°C° 0.2 mm 3 mps 752 mmHg 95%
    22:00 -1°C° 0.2 mm 3 mps 752 mmHg 96%
    23:00 -1°C° 0.1 mm 3 mps 752 mmHg 96%

    Pasado mañana, 21 Diciembre, Viernes

    Tiempo Temperatura Precipitaciones Viento Presión Humedad
    00:00 -1°C° 0.1 mm 3 mps 752 mmHg 96%
    01:00 0°C° 0.1 mm 3 mps 752 mmHg 96%
    02:00 0°C° 0 mm 3 mps 751 mmHg 96%
    03:00 0°C° 0 mm 3 mps 751 mmHg 96%
    04:00 0°C° 0 mm 3 mps 751 mmHg 96%
    05:00 0°C° 0 mm 3 mps 751 mmHg 96%
    06:00 0°C° 0 mm 3 mps 751 mmHg 96%
    07:00 0°C° 0 mm 3 mps 750 mmHg 96%
    08:00 0°C° 0 mm 3 mps 750 mmHg 96%
    09:00 0°C° 0 mm 3 mps 750 mmHg 95%
    10:00 0°C° 0 mm 3 mps 750 mmHg 95%
    11:00 0°C° 0 mm 3 mps 749 mmHg 95%
    12:00 +1°C° 0 mm 3 mps 748 mmHg 96%
    13:00 0°C° 0 mm 4 mps 748 mmHg 96%
    14:00 0°C° 0 mm 4 mps 747 mmHg 96%
    15:00 0°C° 0 mm 4 mps 747 mmHg 95%
    16:00 -1°C° 0 mm 4 mps 746 mmHg 95%
    17:00 -1°C° 0.3 mm 5 mps 745 mmHg 94%
    18:00 0°C° 0.3 mm 5 mps 744 mmHg 94%
    19:00 0°C° 0.3 mm 5 mps 743 mmHg 94%
    20:00 0°C° 1.1 mm 5 mps 742 mmHg 94%
    21:00 0°C° 1.1 mm 5 mps 741 mmHg 95%
    22:00 0°C° 1.1 mm 5 mps 740 mmHg 95%
    23:00 +1°C° 0.6 mm 5 mps 740 mmHg 94%

    22 Diciembre, Sábado

    Tiempo Temperatura Precipitaciones Viento Presión Humedad
    00:00 +1°C° 0.6 mm 6 mps 739 mmHg 93%
    01:00 +2°C° 0.6 mm 6 mps 739 mmHg 92%
    02:00 +2°C° 0.2 mm 6 mps 739 mmHg 90%
    03:00 +3°C° 0.2 mm 6 mps 739 mmHg 88%
    04:00 +3°C° 0.2 mm 6 mps 740 mmHg 87%
    05:00 +3°C° 0 mm 6 mps 739 mmHg 87%
    06:00 +2°C° 0 mm 6 mps 739 mmHg 87%
    07:00 +2°C° 0 mm 7 mps 739 mmHg 87%
    08:00 +3°C° 0 mm 7 mps 739 mmHg 88%
    09:00 +3°C° 0 mm 7 mps 739 mmHg 89%
    10:00 +3°C° 0 mm 7 mps 740 mmHg 89%
    11:00 +3°C° 0.1 mm 6 mps 739 mmHg 90%
    12:00 +3°C° 0.1 mm 6 mps 739 mmHg 91%
    13:00 +3°C° 0.1 mm 5 mps 739 mmHg 91%
    14:00 +3°C° 0.1 mm 5 mps 739 mmHg 92%
    15:00 +3°C° 0.1 mm 5 mps 740 mmHg 93%
    16:00 +3°C° 0.1 mm 5 mps 740 mmHg 93%
    17:00 +3°C° 0.1 mm 5 mps 741 mmHg 93%
    18:00 +2°C° 0.1 mm 5 mps 741 mmHg 92%
    19:00 +2°C° 0.1 mm 5 mps 742 mmHg 91%
    20:00 +3°C° 0 mm 4 mps 743 mmHg 92%
    21:00 +1°C° 0 mm 4 mps 743 mmHg 93%
    22:00 +2°C° 0 mm 3 mps 743 mmHg 94%
    23:00 +1°C° 0.1 mm 3 mps 744 mmHg 94%

    23 Diciembre, Domingo

    Tiempo Temperatura Precipitaciones Viento Presión Humedad
    00:00 +1°C° 0.1 mm 3 mps 744 mmHg 94%
    01:00 +2°C° 0.1 mm 2 mps 745 mmHg 95%
    02:00 +2°C° 0.4 mm 2 mps 745 mmHg 94%
    03:00 +2°C° 0.4 mm 2 mps 746 mmHg 93%
    04:00 +2°C° 0.4 mm 2 mps 746 mmHg 93%
    05:00 +1°C° 0.4 mm 3 mps 747 mmHg 92%
    06:00 +2°C° 0.4 mm 3 mps 747 mmHg 92%
    07:00 +1°C° 0.4 mm 4 mps 747 mmHg 91%
    08:00 +1°C° 0.2 mm 4 mps 747 mmHg 90%
    09:00 +2°C° 0.2 mm 5 mps 747 mmHg 89%
    10:00 +2°C° 0.2 mm 5 mps 748 mmHg 88%
    11:00 +3°C° 0 mm 6 mps 748 mmHg 85%
    12:00 +3°C° 0 mm 6 mps 748 mmHg 82%
    13:00 +4°C° 0 mm 6 mps 748 mmHg 79%
    14:00 +3°C° 0.1 mm 6 mps 747 mmHg 80%
    15:00 +3°C° 0.1 mm 6 mps 747 mmHg 81%
    16:00 +3°C° 0.1 mm 6 mps 747 mmHg 82%
    17:00 +3°C° 0.1 mm 7 mps 748 mmHg 82%
    18:00 +2°C° 0.1 mm 7 mps 748 mmHg 82%
    19:00 +2°C° 0.1 mm 7 mps 748 mmHg 83%
    20:00 0°C° 0.1 mm 7 mps 749 mmHg 81%
    21:00 0°C° 0.1 mm 7 mps 750 mmHg 79%
    22:00 -1°C° 0.1 mm 6 mps 751 mmHg 77%
    23:00 0°C° 0 mm 5 mps 752 mmHg 79%

    24 Diciembre, Lunes

    Tiempo Temperatura Precipitaciones Viento Presión Humedad
    00:00 -1°C° 0 mm 4 mps 753 mmHg 80%
    01:00 -2°C° 0 mm 4 mps 753 mmHg 81%
    02:00 -1°C° 0 mm 3 mps 754 mmHg 83%
    03:00 -1°C° 0 mm 3 mps 754 mmHg 85%
    04:00 -1°C° 0 mm 3 mps 755 mmHg 87%
    05:00 -1°C° 0 mm 3 mps 755 mmHg 88%
    06:00 -1°C° 0 mm 2 mps 755 mmHg 88%
    07:00 -1°C° 0 mm 2 mps 756 mmHg 89%
    08:00 +1°C° 0 mm 2 mps 756 mmHg 89%
    09:00 0°C° 0 mm 3 mps 756 mmHg 88%
    10:00 +1°C° 0 mm 3 mps 757 mmHg 88%
    11:00 +1°C° 0 mm 3 mps 757 mmHg 87%
    12:00 +1°C° 0 mm 3 mps 757 mmHg 85%
    13:00 +2°C° 0 mm 3 mps 757 mmHg 83%
    14:00 +2°C° 0 mm 3 mps 757 mmHg 86%
    15:00 +1°C° 0 mm 3 mps 757 mmHg 89%
    16:00 +2°C° 0 mm 2 mps 758 mmHg 91%
    17:00 +2°C° 0 mm 2 mps 758 mmHg 92%
    18:00 +2°C° 0 mm 2 mps 758 mmHg 92%
    19:00 +2°C° 0 mm 2 mps 758 mmHg 93%
    20:00 +1°C° 0 mm 2 mps 758 mmHg 94%
    21:00 +1°C° 0 mm 2 mps 759 mmHg 94%
    22:00 -1°C° 0 mm 2 mps 759 mmHg 95%
    23:00 -1°C° 0 mm 2 mps 759 mmHg 94%
    Mostrar más